TYVAK-0088 (46294 NORAD) Tracking and Keplerian Element Data

This shows tracking and keplerian element data for the satellite.

Feedback or suggestion? Click here.




ElementValue
Catalog46294
NameTYVAK-0088
Epoch Orbit1260
Epoch Day330.88796825
Epoch Year2020
RAAN42.4576
Inclination97.5113
Eccentricity0.0004191
Argument of Perigee46.9803
Mean Anonmoly313.1777
Mean Motion15.10419709
Decay Rate1.989E-05
L11 46294U 20061Y 20330.88796825 .00001989 00000-0 12485-3 0 9995
L22 46294 97.5113 42.4576 0004191 46.9803 313.1777 15.10419709 12601

Live tracking and technical data element details for TYVAK-0088 (NORAD 46294). TYVAK-0088 can be tracked NOW for your location showing map with azimuth and elevation plus other details from your city location.

Track the satellite on the map from your city or location and see movement details for azimuth, elevation, latitude, longitude, range, height, and movement on the map or in text.







IsCatalogInMostPopularTable: catalog: 46294, numindb: 21
Update: records affected: 1



GetName: 46294 TYVAK-0088

Hit Count: updated at: Fri, 27 Nov 2020 00:31:16 GMT